AD8BW Weather Reports


time (UTC)temp
F
wind
direction
speed
knots
gust
knots
rain 1hr
in
rain 24hr
in
rain mn
in
humidity
%
barometer
mb
20260903052711 73 189 0.0 1.7 0.00 0.00 0.00 88 1013.5
20260903051712 74 205 0.0 1.7 0.00 0.00 0.00 87 1013.6
20260903050719 74 205 0.0 3.5 0.00 0.00 0.00 87 1013.6
20260903045710 74 205 0.0 0.0 0.00 0.00 0.00 87 1013.7
20260903044711 74 205 0.0 1.7 0.00 0.00 0.00 87 1013.4
20260903043709 74 205 0.0 3.5 0.00 0.00 0.00 86 1013.5
20260903042710 75 187 1.7 7.8 0.00 0.00 0.00 86 1013.5
20260903041709 75 191 3.5 7.8 0.00 0.00 0.00 86 1013.5
20260903040709 76 198 0.0 3.5 0.00 0.00 0.00 85 1013.3
20260903035707 76 194 0.0 6.1 0.00 0.00 0.00 85 1013.3
20260903034710 76 194 1.7 4.3 0.00 0.00 0.00 85 1013.4
20260903033710 77 188 3.5 10.4 0.00 0.00 0.00 86 1013.5
20260903032704 76 175 1.7 7.8 0.00 0.00 0.00 86 1013.1
20260903031703 76 165 3.5 9.6 0.00 0.00 0.00 85 1013.5
20260903030701 76 200 1.7 4.3 0.00 0.00 0.00 85 1012.8
20260903025705 77 355 0.0 1.7 0.00 0.00 0.00 85 1012.6
20260903024704 76 355 0.0 1.7 0.00 0.00 0.00 85 1011.7
20260903023700 77 355 0.0 3.5 0.00 0.00 0.00 85 1012.3
20260903022701 77 325 0.0 0.0 0.00 0.00 0.00 85 1012.1
20260903021703 77 325 0.0 0.0 0.00 0.00 0.00 84 1012.6
20260903020710 77 325 0.0 1.7 0.00 0.00 0.00 82 1013.1
20260903015659 78 325 0.0 1.7 0.00 0.00 0.00 81 1013.4
20260903014655 79 325 0.0 1.7 0.00 0.00 0.00 79 1013.3
20260903013655 79 325 1.7 4.3 0.00 0.00 0.00 78 1013.3
20260903012656 81 350 3.5 7.8 0.00 0.00 0.00 76 1013.0
20260903011657 82 306 3.5 6.1 0.00 0.00 0.00 70 1013.0
20260903010655 82 323 1.7 4.3 0.00 0.00 0.00 67 1012.6
20260903005654 82 210 0.0 1.7 0.00 0.00 0.00 66 1012.4
20260903004656 83 192 1.7 4.3 0.00 0.00 0.00 65 1012.3
20260903003659 83 192 3.5 7.8 0.00 0.00 0.00 64 1012.2
20260903002654 83 181 4.3 20.0 0.00 0.00 0.00 72 1012.2
20260903001656 82 193 1.7 4.3 0.00 0.00 0.00 76 1011.9
20260903000653 85 234 0.0 3.5 0.00 0.00 0.00 70 1012.1
20260902235653 86 182 0.0 3.5 0.00 0.00 0.00 67 1011.9
20260902234653 87 186 1.7 7.8 0.00 0.00 0.00 67 1012.3
20260902233652 87 171 0.0 3.5 0.00 0.00 0.00 67 1012.3
20260902232652 87 190 0.0 1.7 0.00 0.00 0.00 67 1012.2
20260902231652 87 185 0.0 3.5 0.00 0.00 0.00 66 1012.3
20260902230650 87 180 1.7 6.1 0.00 0.00 0.00 66 1012.4
20260902225658 88 182 1.7 7.8 0.00 0.00 0.00 65 1012.4
20260902224651 88 227 1.7 3.5 0.00 0.00 0.00 64 1012.4
20260902223650 89 206 3.5 10.4 0.00 0.00 0.00 63 1012.1
20260902222649 89 200 3.5 10.4 0.00 0.00 0.00 61 1011.8
20260902221651 90 238 1.7 13.9 0.00 0.00 0.00 62 1011.8
20260902220649 89 334 1.7 7.8 0.00 0.00 0.00 62 1011.8
20260902215645 90 180 1.7 6.1 0.00 0.00 0.00 61 1011.9
20260902214648 90 159 1.7 4.3 0.00 0.00 0.00 60 1011.7
20260902213650 90 175 3.5 9.6 0.00 0.00 0.00 59 1011.7
20260902212642 90 140 3.5 12.2 0.00 0.00 0.00 57 1011.8
20260902211645 90 252 3.5 13.9 0.00 0.00 0.00 59 1011.9
20260902210641 90 169 3.5 17.4 0.00 0.00 0.00 59 1012.1
20260902205640 89 154 1.7 6.1 0.00 0.00 0.00 60 1012.2
20260902204643 90 229 3.5 12.2 0.00 0.00 0.00 58 1012.3
20260902203641 90 171 4.3 20.0 0.00 0.00 0.00 58 1012.3
20260902202640 91 144 3.5 13.9 0.00 0.00 0.00 57 1012.3
20260902201640 91 260 1.7 9.6 0.00 0.00 0.00 59 1012.5
20260902200648 91 224 3.5 7.8 0.00 0.00 0.00 58 1012.7
20260902195640 91 198 3.5 12.2 0.00 0.00 0.00 56 1012.7
20260902194636 92 206 1.7 10.4 0.00 0.00 0.00 59 1012.8
20260902193632 92 355 1.7 10.4 0.00 0.00 0.00 58 1012.9
20260902192633 91 271 3.5 9.6 0.00 0.00 0.00 57 1013.1
20260902191634 92 355 3.5 7.8 0.00 0.00 0.00 54 1013.3
20260902190631 91 169 3.5 9.6 0.00 0.00 0.00 55 1013.3
20260902185635 92 333 1.7 7.8 0.00 0.00 0.00 57 1013.3
20260902184634 92 261 3.5 7.8 0.00 0.00 0.00 57 1013.3
20260902183633 92 225 1.7 9.6 0.00 0.00 0.00 58 1013.3
20260902182629 91 311 1.7 12.2 0.00 0.00 0.00 61 1013.3
20260902181628 91 203 3.5 12.2 0.00 0.00 0.00 60 1013.4
20260902180630 91 265 1.7 7.8 0.00 0.00 0.00 61 1013.3
20260902175628 90 196 4.3 13.9 0.00 0.00 0.00 62 1013.3
20260902174628 90 244 3.5 9.6 0.00 0.00 0.00 63 1013.6
20260902173625 89 161 1.7 6.1 0.00 0.00 0.00 66 1013.8
20260902172625 89 310 3.5 7.8 0.00 0.00 0.00 63 1013.9
20260902171623 89 275 3.5 7.8 0.00 0.00 0.00 64 1014.2
20260902170630 89 247 1.7 9.6 0.00 0.00 0.00 67 1014.4
20260902165621 88 300 3.5 6.1 0.00 0.00 0.00 69 1014.4
20260902164621 88 283 1.7 3.5 0.00 0.00 0.00 69 1014.5
20260902163621 88 341 3.5 6.1 0.00 0.00 0.00 68 1014.7
20260902162622 88 184 3.5 9.6 0.00 0.00 0.00 70 1014.7
20260902161625 88 334 3.5 12.2 0.00 0.00 0.00 68 1014.7
20260902160622 87 344 3.5 13.9 0.00 0.00 0.00 67 1014.6
20260902155622 88 227 1.7 7.8 0.00 0.00 0.00 67 1014.6
20260902154624 88 250 1.7 7.8 0.00 0.00 0.00 68 1014.4
20260902153619 88 177 3.5 9.6 0.00 0.00 0.00 69 1014.3
20260902152619 87 269 1.7 7.8 0.00 0.00 0.00 71 1014.3
20260902151624 86 323 1.7 6.1 0.00 0.00 0.00 71 1014.3
20260902150618 86 313 1.7 7.8 0.00 0.00 0.00 71 1014.3
20260902145616 85 240 1.7 6.1 0.00 0.00 0.00 74 1014.3
20260902144620 85 233 1.7 7.8 0.00 0.00 0.00 75 1014.3
20260902143621 84 254 0.0 7.8 0.00 0.00 0.00 77 1014.2
20260902142618 83 200 0.0 3.5 0.00 0.00 0.00 79 1014.3
20260902141622 83 188 0.0 7.8 0.00 0.00 0.00 81 1014.2
20260902140618 82 186 0.0 3.5 0.00 0.00 0.00 83 1014.3
20260902135614 81 188 1.7 6.1 0.00 0.00 0.00 83 1014.2
20260902134612 80 193 1.7 7.8 0.00 0.00 0.00 85 1014.3
20260902133612 80 175 1.7 6.1 0.00 0.00 0.00 87 1014.4
20260902132614 79 173 0.0 4.3 0.00 0.00 0.00 89 1014.5
20260902131614 78 225 1.7 7.8 0.00 0.00 0.00 90 1014.4
20260902130614 78 171 1.7 7.8 0.00 0.00 0.00 91 1014.4
20260902125618 77 176 1.7 6.1 0.00 0.00 0.00 92 1014.4
20260902124610 77 174 1.7 7.8 0.00 0.00 0.00 92 1014.4
20260902123607 76 165 0.0 4.3 0.00 0.00 0.00 93 1014.5
20260902122607 76 212 0.0 0.0 0.00 0.00 0.00 93 1014.4
20260902121607 76 188 0.0 1.7 0.00 0.00 0.00 92 1014.4
20260902120608 76 178 0.0 3.5 0.00 0.00 0.00 92 1014.4
20260902115608 76 274 0.0 3.5 0.00 0.00 0.00 92 1014.3
20260902114608 76 173 1.7 7.8 0.00 0.00 0.00 92 1014.2
20260902113608 76 160 0.0 6.1 0.00 0.00 0.00 92 1014.2
20260902112629 76 148 0.0 1.7 0.00 0.00 0.00 92 1014.1
20260902111604 76 170 0.0 3.5 0.00 0.00 0.00 92 1014.0
20260902110605 76 178 0.0 4.3 0.00 0.00 0.00 93 1014.1
20260902105601 76 315 1.7 6.1 0.00 0.00 0.00 93 1014.4
20260902104603 76 326 1.7 7.8 0.00 0.00 0.00 93 1014.7
20260902103602 76 304 0.0 4.3 0.00 0.00 0.00 93 1014.6
20260902102601 76 277 0.0 6.1 0.00 0.00 0.00 92 1014.4
20260902101602 76 323 0.0 3.5 0.00 0.00 0.00 92 1014.4
20260902100605 76 234 0.0 1.7 0.00 0.00 0.00 92 1014.0
20260902095604 76 236 0.0 1.7 0.00 0.00 0.00 92 1013.9
20260902094600 76 236 0.0 1.7 0.00 0.00 0.00 92 1014.0
20260902093558 76 236 0.0 1.7 0.00 0.00 0.00 92 1014.1
20260902092558 76 236 0.0 1.7 0.00 0.00 0.00 92 1014.2
20260902091600 76 236 0.0 1.7 0.00 0.00 0.00 92 1014.2
20260902090558 76 181 0.0 1.7 0.00 0.00 0.00 92 1014.2
20260902085600 76 184 0.0 1.7 0.00 0.00 0.00 92 1014.1
20260902084559 76 178 0.0 1.7 0.00 0.00 0.00 92 1013.9
20260902083600 76 178 0.0 7.8 0.00 0.00 0.00 92 1013.9
20260902082600 75 171 0.0 3.5 0.00 0.00 0.00 92 1013.9
20260902081557 75 188 0.0 3.5 0.00 0.00 0.00 91 1013.9
20260902080600 75 188 0.0 0.0 0.00 0.00 0.00 91 1014.0
20260902075556 75 163 0.0 0.0 0.00 0.00 0.00 91 1014.1
20260902074552 75 163 0.0 0.0 0.00 0.00 0.00 90 1014.1
20260902073556 75 163 0.0 0.0 0.00 0.00 0.00 90 1013.9
20260902072554 75 163 0.0 0.0 0.00 0.00 0.00 90 1013.7
20260902071554 75 163 0.0 0.0 0.00 0.00 0.00 90 1013.8
20260902070552 75 163 0.0 0.0 0.00 0.00 0.00 89 1013.9
20260902065554 75 163 0.0 0.0 0.00 0.00 0.00 89 1013.8
20260902064551 75 163 0.0 0.0 0.00 0.00 0.00 89 1013.8
20260902063552 76 163 0.0 0.0 0.00 0.00 0.00 89 1013.9
20260902062550 76 163 0.0 0.0 0.00 0.00 0.00 89 1014.2
20260902061551 76 163 0.0 0.0 0.00 0.00 0.00 89 1014.2
20260902060551 76 163 0.0 0.0 0.00 0.00 0.00 89 1014.3
20260902055556 76 163 0.0 1.7 0.00 0.00 0.00 88 1014.4
20260902054553 76 163 0.0 0.0 0.00 0.00 0.00 88 1014.5
20260902053553 76 163 0.0 0.0 0.00 0.00 0.00 88 1014.6